Cloud_Cover
0 0 0 8 8 24 36 44 76 68 64 88 56 48 56 56 44 32 20 12 12 32 48 56 76 88 92 92 92 92 92 92 92 92 92 92 92 92 88 68 56 44 36 44 36 32 24 12 12 8 8 0 0 0 0 0 0 0 0 0 0 0 0 0 0 0 0 0 0
8 12 12 8 24 32 44 88 92 92 80 64 48 48 44 36 24 12 8 8 24 44 56 88 92 92 92 92 92 92 92 92 92 92 92 92 92 80 64 48 36 36 32 36 24 24 20 12 12 12 8 0 0 0 0 0 0 0 0 0 0 0 0 0 0 0 0 0 0
20 20 20 12 32 48 68 92 92 80 64 48 48 44 32 24 12 8 12 44 48 64 76 92 92 92 92 92 88 92 92 92 92 92 92 92 76 64 48 44 32 32 36 36 24 24 24 20 24 20 12 8 0 0 0 0 0 0 0 0 0 0 0 0 0 0 0 0 0
24 32 24 20 36 68 88 56 76 68 48 36 44 32 24 20 20 20 32 48 64 76 92 92 92 92 92 88 92 92 92 92 92 92 92 92 76 56 48 44 36 44 44 36 32 32 32 36 32 24 12 12 8 8 0 0 0 0 0 0 0 0 0 0 0 0 0 0 0
44 44 36 44 64 68 76 92 80 68 56 44 44 32 20 12 8 32 56 56 68 80 92 88 76 80 88 92 92 92 92 92 92 92 92 92 76 56 48 44 44 44 36 32 36 36 32 32 24 20 12 8 8 0 0 0 0 0 0 0 0 0 0 0 0 0 0 0 0
48 44 36 32 80 92 92 80 92 76 56 36 32 24 20 20 24 44 56 56 76 88 92 92 80 80 88 92 92 92 92 92 92 92 92 80 64 56 48 44 32 24 24 32 36 36 44 44 36 24 12 0 0 0 0 0 0 0 0 0 0 0 0 0 0 0 0 0 0
64 56 64 76 92 92 92 92 92 68 36 36 32 24 20 8 36 48 56 64 80 92 92 92 92 92 92 92 92 92 92 92 92 92 88 68 56 44 36 36 32 24 24 32 32 36 32 24 20 12 8 0 0 0 0 0 0 0 0 0 0 0 0 0 0 0 0 0 0
68 68 76 92 92 92 92 92 80 56 36 32 24 24 20 8 36 48 56 76 88 80 68 88 92 92 92 92 92 92 92 92 92 76 64 48 48 44 36 36 36 36 36 32 44 36 32 44 32 24 12 8 8 0 0 0 0 0 0 0 0 0 0 0 0 0 0 0 0
92 92 92 92 92 92 92 92 68 44 24 20 20 12 12 24 64 80 80 88 80 80 88 92 92 92 92 92 92 92 88 68 56 48 44 36 36 36 36 36 32 36 44 48 56 48 44 36 24 20 12 12 8 0 0 0 0 0 0 0 0 0 0 0 0 0 8 24 20
92 92 92 92 92 76 64 64 48 32 12 20 20 20 36 88 88 76 64 64 88 92 92 92 92 92 92 92 92 88 76 48 36 24 24 36 32 32 36 56 48 48 48 48 56 48 32 20 20 20 20 20 12 0 0 0 0 0 0 8 12 8 0 0 0 0 24 88 48
92 92 92 92 76 56 48 48 36 20 12 20 48 80 92 92 68 64 76 92 92 92 92 92 92 92 92 88 76 56 48 48 44 24 20 20 24 32 44 68 76 76 68 56 48 36 24 8 24 32 24 8 0 0 0 0 0 8 20 56 80 64 32 8 8 20 36 68 76
92 92 92 80 64 44 36 32 24 20 32 68 88 92 92 80 56 68 92 92 92 92 92 92 92 92 80 64 44 36 36 32 36 36 36 44 44 44 56 80 80 76 64 36 32 24 20 12 24 32 32 20 20 12 8 20 36 48 64 76 76 76 76 56 48 48 64 88 88
92 92 88 68 48 36 32 24 20 44 76 92 92 80 64 36 36 68 92 92 92 92 92 92 92 76 48 44 32 32 32 32 36 48 64 68 76 76 80 88 76 56 32 24 20 20 20 12 12 32 56 64 68 56 44 68 76 76 64 44 32 36 56 88 48 56 68 76 80
92 88 68 48 36 32 32 24 20 56 92 92 68 44 24 24 68 88 92 92 92 92 92 92 88 64 36 36 32 32 24 20 20 36 64 68 80 88 88 76 56 36 32 36 36 32 32 36 32 44 64 88 68 56 48 44 64 48 44 48 64 64 64 76 32 48 76 56 68
92 80 56 44 44 44 44 36 48 76 92 80 36 20 32 76 92 92 92 92 92 92 88 76 64 48 36 32 24 24 32 36 36 48 76 88 88 80 68 56 44 44 56 68 76 76 76 88 64 68 80 80 24 20 44 76 88 76 64 68 68 68 64 64 48 64 80 88 76
92 76 56 56 56 56 64 68 88 92 80 64 24 36 68 92 92 92 92 92 88 76 56 48 48 36 32 32 36 48 64 80 88 88 88 88 80 68 64 68 68 80 88 88 88 88 88 88 88 88 88 76 56 68 80 68 80 88 88 80 48 36 44 48 80 88 88 88 68
88 76 68 76 76 76 80 92 92 88 76 48 48 76 92 92 92 92 92 80 68 56 44 44 36 32 32 64 76 88 88 88 88 88 88 80 76 76 76 88 88 88 88 88 80 68 64 68 80 88 88 88 88 88 88 88 88 88 88 88 68 64 68 68 88 80 76 68 76
80 76 80 80 80 88 88 92 92 92 80 68 88 92 92 92 92 88 76 56 48 48 48 44 48 56 68 88 88 88 88 88 88 88 88 76 80 88 92 88 88 88 88 88 80 56 44 68 48 56 76 88 64 76 88 76 88 76 64 68 76 76 80 92 76 64 64 64 56
80 80 80 88 88 88 92 92 92 92 92 92 92 92 92 92 92 76 56 44 48 56 64 68 80 88 88 88 92 88 88 92 88 88 92 88 80 80 88 88 88 88 88 88 88 80 76 88 64 48 48 48 56 76 88 76 88 80 68 76 76 76 64 56 36 44 44 44 36
92 92 92 88 92 92 92 92 88 88 92 92 92 92 92 92 92 68 56 64 68 76 80 88 88 88 88 92 88 88 80 80 80 80 88 92 76 80 88 88 88 88 88 88 88 80 80 88 88 80 68 64 80 88 80 56 80 88 88 88 88 80 68 68 68 68 68 64 44
92 92 92 92 92 92 92 80 88 92 92 92 92 92 92 92 80 68 68 80 88 88 88 92 88 80 80 80 80 76 76 76 80 88 88 80 76 80 88 88 80 76 68 68 56 64 76 88 88 88 88 80 80 80 68 44 48 56 68 88 88 88 80 88 92 92 92 92 80
92 92 92 92 92 92 88 88 92 92 92 92 92 92 88 80 80 80 88 92 92 92 92 92 76 68 68 76 68 64 68 68 88 88 88 88 76 80 80 64 64 56 56 76 48 48 64 80 76 76 68 48 44 48 48 32 24 48 80 88 88 88 88 88 88 80 76 80 88
92 92 92 92 92 92 92 92 92 92 92 92 92 88 80 88 92 92 92 92 88 80 80 92 88 80 88 88 80 80 80 80 88 88 88 76 76 76 76 80 80 76 76 68 64 64 56 48 36 24 12 8 8 8 12 8 8 12 32 56 48 56 76 88 88 88 80 68 64
92 92 92 92 92 92 92 92 92 92 92 92 88 80 88 92 92 92 92 80 68 64 64 68 76 80 88 88 88 88 88 76 76 76 76 80 76 64 64 88 88 88 88 80 68 68 56 20 8 0 0 0 36 56 56 32 20 36 48 20 8 8 20 44 56 56 48 48 64
92 92 92 92 92 92 92 92 92 92 92 88 92 92 92 92 92 92 88 64 56 56 56 56 80 88 88 92 92 80 76 68 68 56 56 68 80 80 80 88 88 88 88 88 68 48 24 0 0 0 12 64 76 80 80 76 48 48 48 20 8 20 44 56 48 48 48 64 64
92 92 92 92 92 92 92 92 92 92 92 92 92 92 92 92 92 80 76 76 68 64 56 56 64 80 88 88 76 80 88 88 88 80 80 80 88 88 88 88 88 88 88 88 36 12 0 0 0 0 20 80 80 80 80 80 80 80 76 76 76 68 68 64 56 64 68 68 68
92 92 92 92 92 92 92 92 92 92 92 92 92 92 92 92 92 76 68 88 80 64 44 36 36 44 44 44 44 68 76 36 36 56 76 64 80 88 88 88 88 88 76 36 8 0 0 0 0 32 64 32 44 68 80 80 80 80 80 80 88 88 88 88 68 68 68 64 68
92 92 92 92 92 92 92 92 92 92 92 92 92 92 80 64 56 48 56 56 44 36 32 32 36 36 44 48 48 48 44 44 56 76 88 88 88 88 88 88 88 88 68 20 12 0 0 0 12 44 64 0 20 32 44 56 48 64 76 68 88 88 92 92 80 88 88 92 92
92 92 92 92 92 92 92 92 92 92 92 92 76 48 36 36 36 36 36 36 44 48 48 44 56 56 56 56 48 48 56 68 88 88 88 88 88 88 88 88 88 88 80 64 24 8 8 36 68 80 68 32 36 48 56 36 24 32 44 56 64 76 88 92 92 92 92 88 68
92 92 92 88 92 92 92 92 92 88 76 44 44 36 36 36 44 44 48 48 48 56 56 56 56 48 44 44 44 44 44 48 80 88 88 88 64 68 88 88 88 88 88 88 24 20 36 56 44 36 44 64 56 36 20 24 32 44 64 76 76 80 88 88 92 88 76 68 68
92 92 92 92 92 92 92 88 64 48 44 44 44 48 56 64 64 68 64 56 56 48 44 44 44 44 44 44 36 36 36 44 76 76 64 88 88 88 88 88 88 88 88 80 32 12 12 24 44 48 56 80 44 36 36 24 32 48 68 80 88 92 92 92 88 88 88 88 88
92 92 92 88 88 68 48 48 44 48 48 56 64 68 64 56 56 56 56 56 48 44 44 44 36 36 36 36 36 36 48 88 88 88 88 88 88 80 80 88 80 80 68 44 8 0 12 56 64 76 68 24 64 68 48 20 44 64 80 92 92 92 92 92 92 92 92 92 92
92 92 88 88 68 56 56 56 56 56 56 56 56 56 56 56 56 48 44 44 44 36 32 32 32 32 32 32 32 44 64 88 88 88 88 88 80 64 64 80 64 32 12 0 0 0 20 80 68 68 68 20 44 48 48 56 80 92 92 92 92 92 92 92 92 92 92 92 92
88 88 88 76 48 44 44 36 36 44 48 56 56 56 56 48 44 44 36 32 36 32 24 24 32 32 32 24 24 44 64 88 76 68 76 88 36 36 56 64 76 48 20 12 0 12 44 80 80 80 68 24 64 64 56 76 88 92 92 92 92 92 92 92 92 92 92 92 92
88 88 80 48 44 44 44 36 44 56 64 56 48 48 44 44 44 36 24 20 32 32 24 20 24 24 20 12 32 64 88 88 36 36 64 76 24 44 68 36 76 76 56 20 8 24 56 68 68 68 68 80 64 76 88 88 92 92 92 92 92 92 92 92 92 92 92 92 92
88 88 80 56 56 56 64 68 80 76 56 48 44 44 36 36 32 20 20 32 32 24 20 12 12 12 12 12 44 68 80 76 36 56 76 56 20 36 56 48 76 80 64 20 20 48 68 44 76 68 64 80 80 80 88 88 92 92 92 92 92 92 92 92 92 92 92 92 92
92 92 88 76 76 76 76 92 76 56 44 44 36 36 32 32 24 20 24 32 32 24 12 12 12 12 8 12 36 64 76 32 12 32 64 68 36 44 68 88 88 68 44 32 44 64 76 68 80 80 80 80 80 80 80 88 88 92 92 92 92 92 88 88 88 92 92 92 92
92 88 80 80 80 76 76 76 64 48 36 36 32 32 32 24 24 24 24 24 20 12 12 12 12 8 12 24 36 56 64 20 12 8 12 32 32 32 48 80 88 76 56 56 76 80 80 80 80 80 80 80 80 80 80 80 88 88 92 92 88 88 88 88 88 92 92 92 92
88 76 68 76 76 88 76 36 36 32 32 24 24 24 32 32 24 20 20 12 20 12 8 8 8 8 12 32 36 44 36 20 0 0 12 32 48 56 64 80 80 76 76 80 80 80 80 80 80 80 80 80 80 80 80 80 80 80 88 80 80 80 88 88 88 88 92 92 92
80 76 68 88 88 92 76 32 24 24 24 20 20 20 24 24 20 12 12 12 12 8 8 8 8 0 0 12 24 32 24 20 8 0 12 68 76 80 80 80 80 80 80 80 80 80 80 80 80 80 80 80 80 80 80 80 80 80 76 68 68 76 80 80 80 88 88 92 92
80 80 80 92 92 80 56 24 20 20 24 24 20 12 12 20 12 8 8 8 8 8 8 8 0 0 0 0 12 24 32 32 20 12 24 48 64 76 80 80 80 80 80 80 80 80 80 80 80 80 80 76 68 76 80 80 80 80 76 76 68 76 80 80 80 88 92 88 88